Chippewa, MI

3:17 AM EDT on September 17, 2019 (GMT -0400)
Chippewa County International

Weather History for KCIU - August, 2019

Change the Weather History Date:

Tuesday, August 20, 2019

  Actual Average Record
Temperature  
Mean Temperature 68 °F -  
Max Temperature 82 °F 75 °F 85 °F (1983)
Min Temperature 53 °F 47 °F 35 °F (1981)
Cooling Degree Days 2    
Growing Degree Days 18 (Base 50)    
Moisture  
Dew Point 57 °F    
Average Humidity 70    
Maximum Humidity 97    
Minimum Humidity 41    
Precipitation  
Precipitation 0.00 in - - ()
Sea Level Pressure  
Sea Level Pressure 29.96 in    
Wind  
Wind Speed 4 mph ()    
Max Wind Speed 10 mph    
Max Gust Speed 18 mph    
Visibility 9.6 miles    
Events      
Averages and records for this station are not official NWS values.
T = Trace of Precipitation, MM = Missing Value Source: Averaged Metar Reports

Daily Weather History Graph

Daily Weather History Graph

Search for Another Location

Airport or City:

Astronomy

Aug. 20, 2019 Rise Set
Actual Time 6:42 AM EDT 8:38 PM EDT
Civil Twilight 6:10 AM EDT 9:10 PM EDT
Nautical Twilight 5:30 AM EDT 9:50 PM EDT
Astronomical Twilight 4:47 AM EDT 10:33 PM EDT
Moon 11:10 PM EDT (8/20) 11:34 AM EDT (8/20)
Length of Visible Light 15h 00m
Length of Day
13h 55m
Waning Gibbous, 78% of the Moon is Illuminated
Aug 20
Waning Gibbous
Aug 23
Last Quarter
Aug 30
New
Sep 5
First Quarter
Sep 14
Full

Hourly Weather History & Observations

Time (EDT) Temp. Heat Index Dew Point Humidity Pressure Visibility Wind Dir Wind Speed Gust Speed Precip Events Conditions
12:56 AM 57.9 °F - 55.0 °F 90% 30.01 in 10.0 mi Calm Calm - N/A   Clear
1:56 AM 57.9 °F - 55.0 °F 90% 30.01 in 10.0 mi Calm Calm - N/A   Clear
3:56 AM 57.0 °F - 55.0 °F 93% 30.02 in 10.0 mi South 3.5 mph - N/A   Clear
4:56 AM 53.1 °F - 52.0 °F 96% 30.03 in 10.0 mi South 5.8 mph - N/A   Clear
5:56 AM 57.0 °F - 55.9 °F 96% 30.02 in 10.0 mi South 5.8 mph - N/A   Clear
6:56 AM 57.9 °F - 57.0 °F 97% 30.02 in 10.0 mi South 4.6 mph - N/A   Clear
7:56 AM 62.1 °F - 60.1 °F 93% 30.00 in 10.0 mi SSW 5.8 mph - N/A   Clear
8:56 AM 66.0 °F - 61.0 °F 84% 29.96 in 10.0 mi SSW 5.8 mph - N/A   Clear
9:56 AM 71.1 °F - 63.0 °F 75% 29.99 in 10.0 mi WSW 6.9 mph - N/A   Clear
10:56 AM 73.9 °F - 63.0 °F 68% 30.01 in 10.0 mi Variable 6.9 mph - N/A   Clear
11:56 AM 78.1 °F - 60.1 °F 54% 29.99 in 10.0 mi SSW 8.1 mph - N/A   Clear
12:56 PM 79.0 °F - 57.9 °F 48% 29.97 in 10.0 mi South 10.4 mph 18.4 mph N/A   Clear
1:56 PM 81.0 °F 80.8 °F 55.9 °F 42% 29.97 in 10.0 mi South 8.1 mph 17.3 mph N/A   Clear
2:56 PM 81.0 °F 80.8 °F 55.9 °F 42% 29.97 in 10.0 mi WSW 10.4 mph 18.4 mph N/A   Clear
3:56 PM 82.0 °F 81.6 °F 55.9 °F 41% 29.94 in 10.0 mi WSW 9.2 mph - N/A   Clear
4:56 PM 79.0 °F - 54.0 °F 42% 29.91 in 10.0 mi SW 8.1 mph - N/A   Clear
5:56 PM 75.9 °F - 54.0 °F 46% 29.91 in 10.0 mi SW 5.8 mph - N/A   Clear
6:56 PM 75.9 °F - 55.0 °F 48% 29.90 in 10.0 mi WSW 9.2 mph - N/A   Clear
7:56 PM 73.9 °F - 57.0 °F 55% 29.90 in 10.0 mi WSW 4.6 mph - N/A   Clear
8:56 PM 70.0 °F - 57.0 °F 63% 29.90 in 10.0 mi SW 3.5 mph - N/A   Clear
9:56 PM 66.9 °F - 57.0 °F 70% 29.91 in 10.0 mi SW 4.6 mph - N/A   Clear
10:56 PM 64.9 °F - 57.9 °F 78% 29.91 in 0.8 mi SSW 5.8 mph - N/A   Haze
11:04 PM 64.4 °F - 57.2 °F 77% 29.91 in 10.0 mi SW 5.8 mph - N/A   Mostly Cloudy
11:56 PM 64.9 °F - 59.0 °F 81% 29.89 in 10.0 mi WSW 4.6 mph - N/A   Clear